| time (UTC) | temp F | wind direction | speed MPH | gust MPH | rain 1hr in | rain 24hr in | rain mn in | humidity % | barometer mb |
| 20260502170504 | 71 | 34 | 11.0 | 12.0 | 0.00 | 0.79 | 0.00 | 60 | 1020.3 |
| 20260502164005 | 70 | 346 | 2.0 | 11.0 | 0.00 | 0.89 | 0.00 | 61 | 1020.4 |
| 20260502163004 | 69 | 346 | 6.0 | 12.0 | 0.00 | 0.89 | 0.00 | 61 | 1020.4 |
| 20260502162005 | 69 | 9 | 5.0 | 12.0 | 0.00 | 0.89 | 0.00 | 65 | 1020.3 |
| 20260502161504 | 68 | 41 | 1.0 | 12.0 | 0.00 | 0.89 | 0.00 | 62 | 1020.4 |
| 20260502161004 | 68 | 305 | 4.0 | 10.0 | 0.00 | 0.89 | 0.00 | 64 | 1020.3 |
| 20260502160503 | 68 | 27 | 2.0 | 10.0 | 0.00 | 0.89 | 0.00 | 65 | 1020.3 |
| 20260502152006 | 65 | 53 | 6.0 | 16.0 | 0.00 | 0.98 | 0.00 | 72 | 1020.1 |
| 20260502151506 | 66 | 63 | 5.0 | 16.0 | 0.00 | 0.98 | 0.00 | 74 | 1020.1 |
| 20260502151005 | 65 | 292 | 2.0 | 10.0 | 0.00 | 0.98 | 0.00 | 74 | 1020.2 |
| 20260502150505 | 64 | 336 | 5.0 | 11.0 | 0.00 | 0.98 | 0.00 | 75 | 1020.3 |
| 20260502130503 | 54 | 318 | 1.0 | 5.0 | 0.00 | 1.46 | 0.00 | 92 | 1018.8 |
| 20260502123505 | 52 | 343 | 0.0 | 5.0 | 0.00 | 2.00 | 0.00 | 92 | 1018.3 |
| 20260502123006 | 52 | 344 | 2.0 | 5.0 | 0.00 | 2.00 | 0.00 | 92 | 1018.3 |
| 20260502122506 | 52 | 344 | 3.0 | 5.0 | 0.00 | 2.00 | 0.00 | 92 | 1018.2 |
| 20260502121505 | 52 | 355 | 2.0 | 5.0 | 0.00 | 2.00 | 0.00 | 92 | 1018.0 |
| 20260502121006 | 52 | 360 | 2.0 | 4.0 | 0.00 | 2.00 | 0.00 | 92 | 1018.0 |
| 20260502120506 | 52 | 332 | 1.0 | 4.0 | 0.00 | 2.00 | 0.00 | 92 | 1018.0 |
| 20260502115008 | 51 | 342 | 0.0 | 5.0 | 0.00 | 2.14 | 0.00 | 92 | 1017.8 |
| 20260502114006 | 51 | 341 | 1.0 | 5.0 | 0.00 | 2.14 | 0.00 | 92 | 1017.7 |
| 20260502113505 | 51 | 342 | 3.0 | 4.0 | 0.00 | 2.14 | 0.00 | 92 | 1017.7 |
| 20260502113006 | 51 | 342 | 0.0 | 4.0 | 0.00 | 2.14 | 0.00 | 92 | 1017.7 |
| 20260502112005 | 52 | 342 | 1.0 | 4.0 | 0.00 | 2.14 | 0.00 | 92 | 1017.7 |
| 20260502111505 | 52 | 343 | 0.0 | 2.0 | 0.00 | 2.14 | 0.00 | 92 | 1017.5 |
| 20260502111006 | 52 | 343 | 2.0 | 6.0 | 0.00 | 2.14 | 0.00 | 92 | 1017.5 |
| 20260502110506 | 52 | 342 | 2.0 | 3.0 | 0.00 | 2.14 | 0.00 | 92 | 1017.4 |
| 20260502110007 | 52 | 342 | 1.0 | 4.0 | 0.00 | 2.14 | 0.00 | 92 | 1017.3 |
| 20260502105507 | 52 | 342 | 2.0 | 4.0 | 0.00 | 2.24 | 0.00 | 92 | 1017.3 |
| 20260502105006 | 52 | 342 | 2.0 | 5.0 | 0.00 | 2.24 | 0.00 | 92 | 1017.3 |
| 20260502104506 | 52 | 342 | 1.0 | 5.0 | 0.00 | 2.24 | 0.00 | 92 | 1017.3 |
| 20260502104005 | 52 | 342 | 0.0 | 5.0 | 0.00 | 2.24 | 0.00 | 92 | 1017.2 |
| 20260502103505 | 52 | 342 | 2.0 | 5.0 | 0.00 | 2.24 | 0.00 | 92 | 1017.1 |
| 20260502102506 | 52 | 340 | 1.0 | 5.0 | 0.00 | 2.24 | 0.00 | 92 | 1017.0 |
| 20260502102005 | 52 | 340 | 3.0 | 6.0 | 0.00 | 2.24 | 0.00 | 92 | 1017.0 |
| 20260502101505 | 52 | 339 | 1.0 | 6.0 | 0.00 | 2.24 | 0.00 | 92 | 1016.9 |
| 20260502101010 | 52 | 340 | 2.0 | 5.0 | 0.00 | 2.24 | 0.00 | 92 | 1016.8 |
| 20260502100506 | 52 | 350 | 3.0 | 4.0 | 0.00 | 2.24 | 0.00 | 92 | 1016.8 |
| 20260502091504 | 52 | 355 | 1.0 | 2.0 | 0.00 | 2.48 | 0.00 | 91 | 1015.8 |
| 20260502090506 | 52 | 355 | 1.0 | 3.0 | 0.00 | 2.48 | 0.00 | 91 | 1015.6 |
| 20260502071504 | 54 | 31 | 2.0 | 5.0 | 0.00 | 2.80 | 0.00 | 91 | 1015.7 |
| 20260502071005 | 54 | 31 | 1.0 | 5.0 | 0.00 | 2.80 | 0.00 | 91 | 1015.7 |
| 20260502070505 | 54 | 355 | 1.0 | 5.0 | 0.00 | 2.80 | 0.00 | 91 | 1015.7 |
| 20260502070007 | 54 | 341 | 4.0 | 8.0 | 0.00 | 2.80 | 0.00 | 92 | 1015.7 |
| 20260502065504 | 54 | 5 | 2.0 | 8.0 | 0.00 | 2.82 | 0.00 | 92 | 1015.6 |
| 20260502064506 | 55 | 336 | 2.0 | 8.0 | 0.00 | 2.82 | 0.00 | 92 | 1015.5 |
| 20260502064004 | 54 | 24 | 2.0 | 8.0 | 0.00 | 2.82 | 0.00 | 92 | 1015.6 |
| 20260502063504 | 54 | 355 | 2.0 | 4.0 | 0.00 | 2.82 | 0.00 | 92 | 1015.5 |
| 20260502063005 | 54 | 355 | 1.0 | 9.0 | 0.00 | 2.82 | 0.00 | 92 | 1015.3 |
| 20260502062506 | 54 | 26 | 3.0 | 9.0 | 0.00 | 2.82 | 0.00 | 92 | 1015.5 |
| 20260502060007 | 54 | 29 | 3.0 | 10.0 | 0.00 | 2.82 | 0.00 | 92 | 1015.4 |
| 20260502055504 | 55 | 17 | 3.0 | 6.0 | 0.00 | 2.88 | 0.00 | 93 | 1015.4 |
| 20260502055005 | 54 | 360 | 1.0 | 7.0 | 0.00 | 2.88 | 0.00 | 93 | 1015.4 |
| 20260502054505 | 54 | 26 | 4.0 | 7.0 | 0.00 | 2.88 | 0.00 | 93 | 1015.3 |
| 20260502054005 | 55 | 349 | 2.0 | 10.0 | 0.00 | 2.88 | 0.00 | 93 | 1015.3 |
| 20260502053504 | 55 | 38 | 5.0 | 10.0 | 0.00 | 2.88 | 0.00 | 93 | 1015.3 |
| 20260502053005 | 55 | 55 | 6.0 | 10.0 | 0.00 | 2.88 | 0.00 | 93 | 1015.4 |
| 20260502052504 | 55 | 57 | 4.0 | 11.0 | 0.00 | 2.88 | 0.00 | 93 | 1015.4 |
| 20260502052004 | 55 | 306 | 2.0 | 11.0 | 0.00 | 2.88 | 0.00 | 93 | 1015.5 |
| 20260502051504 | 55 | 51 | 4.0 | 10.0 | 0.00 | 2.88 | 0.00 | 93 | 1015.4 |
| 20260502050505 | 55 | 39 | 5.0 | 13.0 | 0.00 | 2.88 | 0.00 | 93 | 1015.4 |
| 20260502050007 | 55 | 47 | 3.0 | 12.0 | 0.00 | 2.88 | 0.00 | 93 | 1015.4 |
| 20260502045506 | 55 | 315 | 1.0 | 9.0 | 0.00 | 2.88 | 2.88 | 93 | 1015.4 |
| 20260502045006 | 55 | 5 | 4.0 | 7.0 | 0.00 | 2.88 | 2.88 | 93 | 1015.4 |
| 20260502044506 | 55 | 20 | 8.0 | 9.0 | 0.00 | 2.88 | 2.88 | 93 | 1015.4 |
| 20260502044006 | 55 | 18 | 1.0 | 10.0 | 0.00 | 2.88 | 2.88 | 93 | 1015.2 |
| 20260502043505 | 55 | 28 | 2.0 | 13.0 | 0.00 | 2.88 | 2.88 | 93 | 1015.1 |
| 20260502043006 | 55 | 22 | 1.0 | 13.0 | 0.00 | 2.88 | 2.88 | 93 | 1015.0 |
| 20260502042507 | 56 | 19 | 4.0 | 10.0 | 0.00 | 2.88 | 2.88 | 93 | 1015.1 |
| 20260502042006 | 56 | 335 | 4.0 | 9.0 | 0.00 | 2.88 | 2.88 | 93 | 1015.3 |
| 20260502041505 | 56 | 5 | 3.0 | 6.0 | 0.00 | 2.88 | 2.88 | 93 | 1015.4 |
| 20260502041010 | 56 | 355 | 1.0 | 11.0 | 0.00 | 2.88 | 2.88 | 93 | 1015.5 |
| 20260502040507 | 56 | 355 | 1.0 | 11.0 | 0.00 | 2.88 | 2.88 | 93 | 1015.5 |
| 20260502040008 | 56 | 327 | 4.0 | 11.0 | 0.00 | 2.88 | 2.88 | 93 | 1015.4 |
| 20260502035505 | 56 | 351 | 2.0 | 11.0 | 0.00 | 2.88 | 2.88 | 93 | 1015.4 |
| 20260502035006 | 56 | 337 | 2.0 | 8.0 | 0.00 | 2.88 | 2.88 | 93 | 1015.3 |
| 20260502034507 | 56 | 340 | 3.0 | 8.0 | 0.00 | 2.88 | 2.88 | 93 | 1015.2 |
| 20260502033006 | 56 | 349 | 2.0 | 6.0 | 0.00 | 2.88 | 2.88 | 93 | 1015.2 |
| 20260502032505 | 56 | 340 | 1.0 | 10.0 | 0.00 | 2.88 | 2.88 | 93 | 1015.1 |
| 20260502032008 | 56 | 10 | 1.0 | 10.0 | 0.01 | 2.88 | 2.88 | 93 | 1015.0 |
| 20260502031506 | 56 | 338 | 2.0 | 10.0 | 0.02 | 2.88 | 2.88 | 93 | 1014.9 |
| 20260502031006 | 56 | 27 | 3.0 | 10.0 | 0.02 | 2.88 | 2.88 | 93 | 1014.8 |
| 20260502030506 | 56 | 45 | 6.0 | 6.0 | 0.03 | 2.88 | 2.88 | 93 | 1014.7 |
| 20260502030008 | 56 | 313 | 4.0 | 7.0 | 0.04 | 2.88 | 2.88 | 93 | 1014.5 |
| 20260502025505 | 56 | 351 | 1.0 | 10.0 | 0.06 | 2.88 | 2.88 | 93 | 1014.2 |
| 20260502024506 | 56 | 9 | 2.0 | 6.0 | 0.08 | 2.88 | 2.88 | 93 | 1014.1 |
| 20260502024028 | 56 | 16 | 2.0 | 6.0 | 0.09 | 2.88 | 2.88 | 93 | 1014.2 |
| 20260502023529 | 56 | 302 | 1.0 | 7.0 | 0.12 | 2.88 | 2.88 | 93 | 1014.3 |
| 20260502023043 | 56 | 319 | 3.0 | 10.0 | 0.14 | 2.88 | 2.88 | 93 | 1014.2 |
| 20260502022517 | 56 | 299 | 3.0 | 10.0 | 0.15 | 2.88 | 2.88 | 93 | 1013.8 |
| 20260502022024 | 56 | 350 | 1.0 | 6.0 | 0.15 | 2.87 | 2.87 | 93 | 1013.9 |
| 20260502021519 | 56 | 348 | 2.0 | 8.0 | 0.14 | 2.86 | 2.86 | 93 | 1014.1 |
| 20260502021045 | 56 | 41 | 4.0 | 8.0 | 0.15 | 2.86 | 2.86 | 93 | 1013.9 |
| 20260502020531 | 56 | 336 | 4.0 | 9.0 | 0.14 | 2.85 | 2.85 | 93 | 1013.9 |
| 20260502020036 | 56 | 355 | 2.0 | 9.0 | 0.14 | 2.84 | 2.84 | 93 | 1013.9 |
| 20260502015522 | 56 | 5 | 3.0 | 12.0 | 0.13 | 2.83 | 2.83 | 93 | 1013.7 |
| 20260502015010 | 56 | 360 | 1.0 | 12.0 | 0.11 | 2.81 | 2.81 | 93 | 1013.5 |
| 20260502014009 | 56 | 327 | 4.0 | 12.0 | 0.10 | 2.79 | 2.79 | 93 | 1013.4 |
| 20260502013526 | 56 | 355 | 2.0 | 9.0 | 0.08 | 2.76 | 2.76 | 93 | 1012.9 |
| 20260502013026 | 57 | 336 | 3.0 | 8.0 | 0.07 | 2.75 | 2.75 | 93 | 1013.2 |
| 20260502012525 | 57 | 338 | 2.0 | 8.0 | 0.07 | 2.74 | 2.74 | 93 | 1013.5 |
| 20260502012050 | 57 | 315 | 0.0 | 8.0 | 0.07 | 2.73 | 2.73 | 93 | 1013.7 |
| 20260502011049 | 57 | 22 | 4.0 | 7.0 | 0.06 | 2.71 | 2.71 | 93 | 1013.7 |
| 20260502010538 | 57 | 316 | 0.0 | 14.0 | 0.07 | 2.71 | 2.71 | 93 | 1012.8 |
| 20260502010039 | 57 | 5 | 2.0 | 14.0 | 0.07 | 2.70 | 2.70 | 93 | 1012.3 |
| 20260502005511 | 57 | 77 | 5.0 | 14.0 | 0.08 | 2.70 | 2.70 | 93 | 1011.9 |
| 20260502004514 | 58 | 19 | 5.0 | 10.0 | 0.09 | 2.69 | 2.69 | 93 | 1012.1 |
| 20260502004025 | 59 | 22 | 4.0 | 10.0 | 0.09 | 2.69 | 2.69 | 93 | 1012.4 |
| 20260502003536 | 59 | 300 | 2.0 | 8.0 | 0.08 | 2.68 | 2.68 | 93 | 1012.6 |
| 20260502003038 | 59 | 336 | 2.0 | 5.0 | 0.09 | 2.68 | 2.68 | 93 | 1012.7 |
| 20260502002530 | 59 | 341 | 2.0 | 4.0 | 0.09 | 2.67 | 2.67 | 93 | 1012.3 |
| 20260502001528 | 58 | 338 | 5.0 | 5.0 | 0.13 | 2.66 | 2.66 | 93 | 1012.4 |
| 20260502001051 | 58 | 12 | 2.0 | 4.0 | 0.17 | 2.65 | 2.65 | 93 | 1012.3 |
| 20260502000514 | 58 | 11 | 1.0 | 6.0 | 0.21 | 2.64 | 2.64 | 93 | 1011.8 |
| 20260502000030 | 58 | 350 | 3.0 | 6.0 | 0.21 | 2.63 | 2.63 | 93 | 1011.6 |
| 20260501235025 | 58 | 30 | 2.0 | 10.0 | 0.19 | 2.61 | 2.61 | 93 | 1011.8 |
| 20260501234518 | 58 | 55 | 2.0 | 10.0 | 0.18 | 2.60 | 2.60 | 93 | 1011.8 |
| 20260501234030 | 59 | 61 | 1.0 | 9.0 | 0.18 | 2.60 | 2.60 | 93 | 1011.6 |
| 20260501233506 | 59 | 15 | 2.0 | 9.0 | 0.18 | 2.60 | 2.60 | 93 | 1011.6 |
| 20260501233019 | 59 | 79 | 5.0 | 6.0 | 0.17 | 2.59 | 2.59 | 93 | 1011.4 |
| 20260501232531 | 59 | 348 | 1.0 | 6.0 | 0.16 | 2.58 | 2.58 | 93 | 1011.5 |
| 20260501232028 | 59 | 67 | 3.0 | 8.0 | 0.15 | 2.57 | 2.57 | 93 | 1011.6 |
| 20260501231015 | 59 | 5 | 6.0 | 8.0 | 0.08 | 2.49 | 2.49 | 93 | 1011.3 |
| 20260501225506 | 59 | 330 | 4.0 | 15.0 | 0.04 | 2.42 | 2.42 | 93 | 1010.8 |
| 20260501225018 | 59 | 71 | 5.0 | 15.0 | 0.05 | 2.42 | 2.42 | 93 | 1009.7 |
| 20260501224544 | 59 | 86 | 3.0 | 9.0 | 0.06 | 2.42 | 2.42 | 93 | 1009.6 |
| 20260501224019 | 59 | 84 | 2.0 | 12.0 | 0.06 | 2.42 | 2.42 | 93 | 1009.8 |
| 20260501223525 | 59 | 53 | 4.0 | 12.0 | 0.06 | 2.42 | 2.42 | 94 | 1009.7 |
| 20260501223026 | 59 | 103 | 3.0 | 13.0 | 0.06 | 2.42 | 2.42 | 94 | 1009.9 |
| 20260501222526 | 60 | 17 | 7.0 | 13.0 | 0.06 | 2.42 | 2.42 | 93 | 1009.7 |
| 20260501222026 | 60 | 59 | 4.0 | 9.0 | 0.06 | 2.42 | 2.42 | 93 | 1010.0 |
| 20260501221509 | 60 | 28 | 3.0 | 9.0 | 0.07 | 2.42 | 2.42 | 94 | 1010.8 |
| 20260501221018 | 60 | 350 | 3.0 | 11.0 | 0.06 | 2.41 | 2.41 | 93 | 1011.3 |
| 20260501220520 | 60 | 35 | 4.0 | 11.0 | 0.07 | 2.41 | 2.41 | 93 | 1011.7 |
| 20260501215523 | 60 | 25 | 3.0 | 11.0 | 0.07 | 2.39 | 2.39 | 93 | 1011.4 |
| 20260501215022 | 60 | 5 | 5.0 | 11.0 | 0.06 | 2.38 | 2.38 | 93 | 1011.7 |
| 20260501214520 | 60 | 15 | 3.0 | 9.0 | 0.06 | 2.37 | 2.37 | 94 | 1011.4 |
| 20260501214010 | 60 | 355 | 2.0 | 6.0 | 0.06 | 2.36 | 2.36 | 94 | 1011.3 |
| 20260501213525 | 60 | 17 | 2.0 | 6.0 | 0.07 | 2.36 | 2.36 | 94 | 1011.4 |
| 20260501212520 | 60 | 338 | 3.0 | 9.0 | 0.10 | 2.36 | 2.36 | 94 | 1011.0 |
| 20260501212025 | 60 | 355 | 1.0 | 8.0 | 0.11 | 2.36 | 2.36 | 94 | 1010.3 |
| 20260501211510 | 60 | 342 | 6.0 | 9.0 | 0.12 | 2.36 | 2.36 | 94 | 1009.9 |
| 20260501211021 | 60 | 336 | 4.0 | 9.0 | 0.11 | 2.35 | 2.35 | 94 | 1009.6 |
| 20260501210600 | 61 | 355 | 2.0 | 5.0 | 0.10 | 2.34 | 2.34 | 94 | 1009.3 |
| 20260501210015 | 61 | 339 | 3.0 | 5.0 | 0.10 | 2.34 | 2.34 | 94 | 1009.5 |
| 20260501205511 | 61 | 350 | 1.0 | 6.0 | 0.09 | 2.33 | 2.33 | 94 | 1010.3 |
| 20260501205015 | 61 | 348 | 1.0 | 8.0 | 0.08 | 2.32 | 2.32 | 94 | 1010.9 |
| 20260501204023 | 61 | 34 | 2.0 | 12.0 | 0.06 | 2.30 | 2.30 | 94 | 1009.8 |
| 20260501203024 | 61 | 355 | 2.0 | 13.0 | 0.05 | 2.29 | 2.29 | 94 | 1009.8 |
| 20260501202520 | 61 | 11 | 4.0 | 9.0 | 0.04 | 2.27 | 2.27 | 94 | 1009.5 |
| 20260501202014 | 61 | 321 | 3.0 | 10.0 | 0.03 | 2.26 | 2.26 | 94 | 1010.1 |
| 20260501201530 | 61 | 26 | 5.0 | 11.0 | 0.02 | 2.25 | 2.25 | 94 | 1009.8 |
| 20260501200523 | 62 | 282 | 4.0 | 9.0 | 0.02 | 2.24 | 2.24 | 94 | 1010.0 |
| 20260501200009 | 62 | 355 | 3.0 | 9.0 | 0.04 | 2.24 | 2.24 | 94 | 1009.8 |
| 20260501195513 | 62 | 325 | 8.0 | 8.0 | 0.06 | 2.24 | 2.24 | 94 | 1009.6 |
| 20260501195020 | 62 | 5 | 4.0 | 6.0 | 0.07 | 2.24 | 2.24 | 94 | 1010.0 |
| 20260501194522 | 62 | 17 | 4.0 | 8.0 | 0.08 | 2.24 | 2.24 | 94 | 1009.6 |
| 20260501194011 | 62 | 40 | 2.0 | 10.0 | 0.08 | 2.24 | 2.24 | 94 | 1009.5 |
| 20260501193019 | 62 | 344 | 0.0 | 6.0 | 0.11 | 2.24 | 2.24 | 94 | 1009.3 |
| 20260501192514 | 62 | 14 | 4.0 | 6.0 | 0.10 | 2.23 | 2.23 | 94 | 1009.0 |
| 20260501191508 | 62 | 82 | 1.0 | 6.0 | 0.10 | 2.23 | 2.23 | 94 | 1009.7 |
| 20260501191030 | 62 | 86 | 4.0 | 6.0 | 0.11 | 2.23 | 2.23 | 94 | 1008.9 |
| 20260501190514 | 62 | 53 | 2.0 | 4.0 | 0.10 | 2.22 | 2.22 | 94 | 1008.8 |
| 20260501190025 | 62 | 53 | 0.0 | 4.0 | 0.08 | 2.20 | 2.20 | 94 | 1009.1 |
| 20260501185530 | 62 | 54 | 3.0 | 6.0 | 0.08 | 2.19 | 2.19 | 94 | 1009.3 |
| 20260501185024 | 62 | 302 | 2.0 | 3.0 | 0.07 | 2.18 | 2.18 | 94 | 1009.3 |
| 20260501184528 | 62 | 302 | 2.0 | 3.0 | 0.07 | 2.17 | 2.17 | 94 | 1009.8 |
| 20260501184025 | 62 | 302 | 0.0 | 10.0 | 0.06 | 2.16 | 2.16 | 94 | 1009.7 |
| 20260501183524 | 62 | 302 | 3.0 | 12.0 | 0.05 | 2.15 | 2.15 | 94 | 1009.5 |
| 20260501182531 | 62 | 94 | 9.0 | 11.0 | 0.03 | 2.13 | 2.13 | 94 | 1007.4 |
| 20260501182028 | 62 | 18 | 3.0 | 10.0 | 0.03 | 2.13 | 2.13 | 94 | 1008.4 |
| 20260501181030 | 62 | 90 | 3.0 | 10.0 | 0.04 | 2.13 | 2.13 | 94 | 1008.1 |
| 20260501175507 | 62 | 344 | 3.0 | 8.0 | 0.04 | 2.12 | 2.12 | 94 | 1009.5 |
| 20260501175015 | 62 | 21 | 1.0 | 10.0 | 0.03 | 2.11 | 2.11 | 94 | 1009.7 |
| 20260501174506 | 62 | 340 | 0.0 | 10.0 | 0.03 | 2.11 | 2.11 | 94 | 1009.8 |
| 20260501174005 | 62 | 15 | 7.0 | 8.0 | 0.03 | 2.10 | 2.10 | 94 | 1010.1 |
| 20260501173512 | 62 | 27 | 0.0 | 6.0 | 0.04 | 2.10 | 2.10 | 94 | 1010.5 |
| 20260501173011 | 62 | 38 | 2.0 | 9.0 | 0.05 | 2.10 | 2.10 | 94 | 1010.3 |
| 20260501171526 | 62 | 52 | 3.0 | 9.0 | 0.09 | 2.10 | 2.10 | 94 | 1010.4 |